Location: Koslow
(50.3020°N, 18.5663°E)
Time: 01:18:19
(UTC+00:00)

X-37B - Pass Details

Date: 09 August 2021
Orbit: 381 x 393 km, 45.0° (Epoch: 29 August)

Event Time Altitude Azimuth Distance (km) Brightness Sun altitude
Exits shadow 02:13:58 16° 238° (WSW) 1,079 2.2 -10.4°
Maximum altitude 02:15:49 29° 186° (S) 728 1.6 -10.1°
Drops below altitude 10° 02:18:36 10° 124° (SE) 1,396 3.6 -9.8°
Sets 02:20:48 0° 113° (ESE) 2,249 4.9 -9.5°
